This demonstration page uses our WeatherBlox Daily Observations layout. Learn more.

Hourly Observations for July 22, 2018

Temp ( °F °C ) Dew Point ( °F °C ) Humidity (%) Winds ( mph kmh ) Pressure ( in mb ) Visibility ( mi km ) Precip ( " mm )
12:15 am 00:15 Clear with Nearby Thunderstorms 71 21.5 69 20.6 95 95 E 7 11 29.97 1015 10 16.0934 0 0
12:35 am 00:35 Clear 71 21.5 69 20.5 94 94 E 9 15 29.97 1015 10 16.0934 0 0
12:55 am 00:55 Clear 71 21.5 68 20.2 92 92 E 7 11 30 1016 10 16.0934 0 0
1:15 am 01:15 Clear 71 21.8 68 20.1 90 90 Calm 30.03 1017 10 16.0934 0 0
1:35 am 01:35 Clear 71 21.6 68 20 91 91 Calm 30.03 1017 10 16.0934 0 0
1:55 am 01:55 Clear 69 20.8 68 20 95 95 E 9 15 30 1016 10 16.0934 0 0
2:15 am 02:15 Clear 70 21 68 19.9 93 93 E 10 17 30 1016 10 16.0934 0 0
2:35 am 02:35 Partly Cloudy 70 21.1 67 19.7 92 92 ESE 10 17 29.97 1015 10 16.0934 0 0
2:55 am 02:55 Partly Cloudy 70 21.1 67 19.5 91 91 ESE 8 13 29.97 1015 10 16.0934 0 0
3:15 am 03:15 Clear 70 21 67 19.3 90 90 SE 7 11 30 1016 10 16.0934 0 0
3:35 am 03:35 Clear 69 20.7 67 19.2 91 91 SE 7 11 29.97 1015 10 16.0934 0 0
3:55 am 03:55 Clear 68 20.2 66 19 93 93 ESE 8 13 29.97 1015 10 16.0934 0 0
4:15 am 04:15 Clear 68 19.9 66 18.9 94 94 ESE 10 17 30 1016 10 16.0934 0 0
4:35 am 04:35 Clear 68 19.8 66 18.8 94 94 ESE 9 15 30 1016 10 16.0934 0 0
4:55 am 04:55 Clear 67 19.6 65 18.6 94 94 ESE 12 19 29.97 1015 10 16.0934 0 0
5:15 am 05:15 Clear 67 19.5 65 18.3 93 93 ESE 9 15 29.97 1015 10 16.0934 0 0
5:35 am 05:35 Clear 67 19.3 65 18.1 93 93 SE 8 13 29.97 1015 10 16.0934 0 0
5:55 am 05:55 Clear 66 19.1 65 18.2 95 95 ESE 7 11 30 1016 10 16.0934 0 0
6:15 am 06:15 Clear 66 19 65 18.1 95 95 SE 6 9 30 1016 10 16.0934 0 0
6:35 am 06:35 Sunny 65 18.6 64 18 96 96 ESE 5 7 30 1016 10 16.0934 0 0
6:55 am 06:55 Sunny 66 18.8 65 18.2 96 96 ESE 6 9 30 1016 10 16.0934 0 0
7:15 am 07:15 Sunny 66 19 65 18.5 97 97 ESE 6 9 30 1016 10 16.0934 0 0
7:35 am 07:35 Sunny 67 19.3 66 18.8 97 97 ESE 6 9 30.03 1017 10 16.0934 0 0
7:55 am 07:55 Sunny 67 19.6 66 18.7 95 95 SE 8 13 30 1016 10 16.0934 0 0
8:15 am 08:15 Sunny 68 20.2 66 19 93 93 SSE 10 17 29.97 1015 10 16.0934 0 0
8:35 am 08:35 Sunny 70 21 66 19 88 88 SSE 12 19 29.97 1015 10 16.0934 0 0
8:55 am 08:55 Sunny 71 21.8 67 19.2 85 85 SE 9 15 30 1016 10 16.0934 0 0
9:15 am 09:15 Sunny 72 22.2 67 19.2 83 83 SE 12 19 30 1016 10 16.0934 0 0
9:35 am 09:35 Sunny 73 22.9 67 19.4 81 81 SE 10 17 30 1016 10 16.0934 0 0
9:55 am 09:55 Sunny 74 23.4 67 19.3 78 78 SSE 13 20 29.97 1015 10 16.0934 0 0
10:15 am 10:15 Sunny 75 23.7 67 19.3 76 76 S 12 19 29.94 1014 10 16.0934 0 0
10:35 am 10:35 Sunny 75 24 67 19.3 75 75 SSE 12 19 29.94 1014 10 16.0934 0 0
10:55 am 10:55 Sunny 76 24.7 67 19.3 72 72 SSE 12 19 29.94 1014 10 16.0934 0 0
11:15 am 11:15 Sunny 77 25.1 67 19.4 71 71 SSE 10 17 29.94 1014 10 16.0934 0 0
11:35 am 11:35 Sunny 77 25.2 66 19.1 69 69 S 10 17 29.94 1014 10 16.0934 0 0
11:55 am 11:55 Sunny 78 25.4 66 19 68 68 S 9 15 29.94 1014 10 16.0934 0 0
12:15 pm 12:15 Sunny 79 25.9 67 19.7 69 69 SSE 12 19 29.94 1014 10 16.0934 0 0
12:35 pm 12:35 Sunny 80 26.4 68 20.2 69 69 SSE 10 17 29.94 1014 10 16.0934 0 0
12:55 pm 12:55 Sunny 80 26.6 67 19.7 66 66 SE 13 20 29.94 1014 10 16.0934 0 0
1:15 pm 13:15 Sunny 80 26.8 67 19.7 65 65 SSE 8 13 29.91 1013 10 16.0934 0 0
1:35 pm 13:35 Sunny 81 27.3 67 19.7 63 63 SSE 9 15 29.94 1014 10 16.0934 0 0
1:55 pm 13:55 Sunny 82 27.5 67 19.6 62 62 SE 12 19 29.88 1012 10 16.0934 0 0
2:15 pm 14:15 Sunny 82 27.8 68 20 63 63 ESE 9 15 29.88 1012 10 16.0934 0 0
2:35 pm 14:35 Sunny 83 28.1 67 19.7 60 60 SSE 12 19 29.88 1012 10 16.0934 0 0
2:55 pm 14:55 Sunny 83 28.4 67 19.2 57 57 SE 10 17 29.88 1012 10 16.0934 0 0
3:15 pm 15:15 Sunny 84 28.7 67 19.5 58 58 SSE 9 15 29.88 1012 10 16.0934 0 0
3:35 pm 15:35 Sunny 84 28.9 66 18.8 54 54 SSE 10 17 29.88 1012 10 16.0934 0 0
3:55 pm 15:55 Sunny 84 29.1 68 20.1 58 58 SE 14 22 29.88 1012 10 16.0934 0 0
4:15 pm 16:15 Sunny 84 28.7 67 19.6 58 58 SE 6 9 29.88 1012 10 16.0934 0 0
4:35 pm 16:35 Sunny 84 29.1 67 19.3 56 56 SE 6 9 29.88 1012 10 16.0934 0 0
4:55 pm 16:55 Sunny 85 29.4 68 20.1 57 57 ESE 9 15 29.88 1012 10 16.0934 0 0
5:15 pm 17:15 Sunny 85 29.2 67 19.7 57 57 E 10 17 29.88 1012 10 16.0934 0 0
5:35 pm 17:35 Sunny 85 29.2 67 19.7 57 57 ESE 8 13 29.88 1012 10 16.0934 0 0
5:55 pm 17:55 Sunny 84 28.8 68 19.9 59 59 E 9 15 29.88 1012 10 16.0934 0 0
6:15 pm 18:15 Sunny 84 29 68 20.2 59 59 ESE 10 17 29.88 1012 10 16.0934 0 0
6:35 pm 18:35 Sunny 83 28.5 68 19.8 59 59 E 9 15 29.88 1012 10 16.0934 0 0
6:55 pm 18:55 Sunny 83 28.1 69 20.3 63 63 E 9 15 29.85 1011 10 16.0934 0 0
7:15 pm 19:15 Sunny 82 27.7 67 19.7 62 62 E 9 15 29.88 1012 10 16.0934 0 0
7:35 pm 19:35 Sunny 81 27.3 68 20 64 64 E 6 9 29.88 1012 10 16.0934 0 0
7:55 pm 19:55 Sunny 80 26.6 68 20.1 68 68 E 8 13 29.91 1013 10 16.0934 0 0
8:15 pm 20:15 Sunny 77 24.9 70 21.3 80 80 ENE 6 9 29.91 1013 10 16.0934 0 0
8:35 pm 20:35 Sunny 75 24 71 21.7 87 87 NE 6 9 29.94 1014 10 16.0934 0 0
8:55 pm 20:55 Sunny 74 23.6 70 21.2 86 86 NE 7 11 30 1016 10 16.0934 0 0
9:15 pm 21:15 Clear 74 23.1 69 20.8 87 87 E 7 11 29.97 1015 10 16.0934 0 0
9:35 pm 21:35 Clear 73 22.9 69 20.5 86 86 E 7 11 29.97 1015 10 16.0934 0 0
9:55 pm 21:55 Clear 73 23 68 20.1 84 84 E 6 9 29.97 1015 10 16.0934 0 0
10:15 pm 22:15 Clear 73 22.8 69 20.4 86 86 ESE 7 11 29.97 1015 10 16.0934 0 0
10:35 pm 22:35 Clear 73 23 68 20.2 84 84 SE 9 15 29.97 1015 10 16.0934 0 0
10:55 pm 22:55 Clear 73 23 68 20.2 84 84 SE 7 11 30 1016 10 16.0934 0 0
11:15 pm 23:15 Clear with Light Rain 73 22.5 68 20.1 86 86 ENE 3 6 30.03 1017 10 16.0934 0 0
11:35 pm 23:35 Clear 72 22.2 68 20.1 88 88 ENE 3 6 30.03 1017 10 16.0934 0 0
11:55 pm 23:55 Clear 71 21.6 69 20.5 93 93 NE 3 6 30.03 1017 10 16.0934 0 0

Powered by AerisWeather